* Astronomy

Members Login
Username 
 
Password 
    Remember Me  
Post Info TOPIC: Asteroid 2011 CJ50


L

Posts: 131433
Date:
Asteroid 2011 CJ50
Permalink  
 


Orbital elements:
2011 CJ50 Earth MOID = 0.3037 AU
Epoch 2011 Feb. 8.0 TT = JDT 2455600.5 MPC
M 1.27213 (2000.0) P Q
n 0.25771767 Peri. 167.36782 -0.98124482 -0.18997649
a 2.4455314 Node 2.51195 +0.02951587 -0.31557095
e 0.4719398 Incl. 48.20142 +0.19049259 -0.92969022
P 3.82 H 18.7 G 0.15 U 9

MPEC 2011 - C87


__________________
Page 1 of 1  sorted by
 
Quick Reply

Please log in to post quick replies.



Create your own FREE Forum
Report Abuse
Powered by ActiveBoard